{"data":{"norad_id":52264,"epoch":"2026-09-19T19:41:51.785664Z","epoch_age_seconds":118190,"freshness":"FRESH","line1":"1 52264U 22041D   26262.82073826  .00001001  00000+0  40763-4 0  9997","line2":"2 52264  53.1601 301.1471 0001210  85.6112 274.5029 15.34386184243899","mean_motion":15.34386184,"eccentricity":0.000121,"inclination_deg":53.1601,"raan_deg":301.1471,"arg_perigee_deg":85.6112,"mean_anomaly_deg":274.5029,"bstar":4.0763e-5,"rev_number":24389,"period_min":93.848603110206,"perigee_km":461.91655794097,"apogee_km":463.57205121668,"semimajor_km":6840.8813045788,"source":"CELESTRAK","updated_at":"2026-09-20T09:00:39.993781Z"}}